Location: Lafig�re
(44.4503°N, 4.0357°E)
Time: 00:54:52
(UTC+00:00)

Vanguard 2 - Visible Passes

Search period start: 06 May 2021 00:00
Search period end: 16 May 2021 00:00
Orbit: 552 x 2938 km, 32.9° (Epoch: 05 May)

Date Brightness Start Highest point End Pass type
(mag) Time Alt. Az. Time Alt. Az. Time Alt. Az.
11 May 10.9 03:24:27 10° SSE 03:29:20 14° SE 03:35:13 10° ESE visible
12 May 10.7 03:39:47 10° S 03:46:13 20° SE 03:54:40 10° E visible
15 May 10.5 02:27:37 10° SSE 02:30:17 12° SE 02:33:18 10° ESE visible
